Location: Ar Ranvel
(48.3000°N, 4.8833°W)
Time: 14:23:06
(UTC+00:00)

Cosmos 1707 - Pass Details

Date: 16 June 2021
Orbit: 514 x 529 km, 82.5° (Epoch: 29 July)

Event Time Altitude Azimuth Distance (km) Brightness Sun altitude
Rises 20:54:15 0° 177° (S) 2,642 5.9 -4.8°
Reaches altitude 10° 20:56:24 10° 172° (S) 1,761 4.9 -5.0°
Maximum altitude 21:00:11 54° 95° (E) 645 2.9 -5.5°
Drops below altitude 10° 21:04:00 10° 18° (NNE) 1,785 5.8 -5.9°
Sets 21:06:11 0° 14° (NNE) 2,681 6.8 -6.2°
